TimeEST,TemperatureF,Dew PointF,Humidity,Sea Level PressureIn,VisibilityMPH,Wind Direction,Wind SpeedMPH,Gust SpeedMPH,PrecipitationIn,Events,Conditions,WindDirDegrees,DateUTC
12:56 AM,45.9,43.0,90,29.93,10.0,SSE,5.8,-,N/A,,Clear,150,2011-11-16 05:56:00
1:56 AM,45.0,43.0,93,29.92,10.0,SSE,5.8,-,N/A,,Clear,160,2011-11-16 06:56:00
3:56 AM,45.0,43.0,93,29.89,10.0,SE,5.8,-,N/A,,Clear,140,2011-11-16 08:56:00
4:56 AM,45.9,43.9,93,29.90,10.0,SSE,5.8,-,N/A,,Overcast,160,2011-11-16 09:56:00
5:56 AM,45.9,43.9,93,29.89,10.0,South,6.9,-,N/A,,Overcast,170,2011-11-16 10:56:00
6:22 AM,46.4,44.6,93,29.87,10.0,SSE,6.9,-,N/A,,Overcast,150,2011-11-16 11:22:00
6:56 AM,46.9,45.0,93,29.90,10.0,SSE,5.8,-,N/A,,Mostly Cloudy,160,2011-11-16 11:56:00
7:56 AM,47.8,45.9,93,29.90,10.0,SSE,5.8,-,N/A,,Overcast,160,2011-11-16 12:56:00
8:56 AM,50.0,47.8,92,29.86,7.0,SSE,8.1,-,0.00,,Overcast,150,2011-11-16 13:56:00
9:56 AM,50.0,47.8,92,29.86,4.0,SSE,8.1,-,0.00,Rain,Light Rain Showers,160,2011-11-16 14:56:00
10:56 AM,50.9,48.9,93,29.85,10.0,SSE,6.9,-,0.00,,Overcast,160,2011-11-16 15:56:00
11:56 AM,52.0,50.0,93,29.81,10.0,South,8.1,-,N/A,,Overcast,190,2011-11-16 16:56:00
12:56 PM,52.0,48.9,89,29.80,10.0,South,5.8,-,0.00,Rain,Light Rain,190,2011-11-16 17:56:00
1:56 PM,50.9,50.0,97,29.80,5.0,SSW,5.8,-,0.00,Rain,Light Rain,210,2011-11-16 18:56:00
2:56 PM,50.9,50.9,100,29.80,4.0,WSW,4.6,-,0.00,Rain,Light Rain,250,2011-11-16 19:56:00
3:56 PM,50.0,47.8,92,29.80,10.0,West,4.6,-,0.00,Rain,Light Rain,280,2011-11-16 20:56:00
4:56 PM,48.9,46.9,93,29.80,10.0,Calm,Calm,-,0.00,Rain,Light Rain,0,2011-11-16 21:56:00
5:56 PM,48.9,46.9,93,29.83,10.0,West,3.5,-,0.00,,Overcast,270,2011-11-16 22:56:00
6:56 PM,48.9,45.9,89,29.85,10.0,NW,8.1,-,0.00,,Mostly Cloudy,310,2011-11-16 23:56:00
7:26 PM,48.2,44.6,87,29.83,10.0,NW,9.2,16.1,N/A,,Mostly Cloudy,310,2011-11-17 00:26:00
7:56 PM,46.9,43.9,89,29.86,10.0,WNW,9.2,-,N/A,,Overcast,300,2011-11-17 00:56:00
8:56 PM,43.9,36.9,76,29.87,10.0,NNW,11.5,-,N/A,,Mostly Cloudy,330,2011-11-17 01:56:00
10:56 PM,37.9,25.2,60,29.91,10.0,NW,8.1,-,N/A,,Clear,310,2011-11-17 03:56:00
11:56 PM,36.9,28.0,70,29.92,10.0,NW,10.4,-,N/A,,Clear,310,2011-11-17 04:56:00